Home   Weather   34°44'N, 87°40'W   Past weeks
Flag for USA

Past Weather in 34°44'N, 87°40'W, USA — Yesterday and Last 2 Weeks

Now
73 °F

Overcast.


Feels Like: 77 °F
Forecast: 72 / 41 °F
Wind: No wind

Location: North West Alabama Regional Airport

Current Time: Oct 14, 2019 at 6:18:46 pm

Latest Report: Oct 14, 2019 at 4:53 pm


Visibility: 10 mi

Pressure: 30.06 "Hg

Humidity: 44%

Dew Point: 50 °F

Location of 34°44'N, 87°40'WLocation

Past Weather in 34°44'N, 87°40'W — Graph

°F

34°44'N, 87°40'W Temperature Yesterday

Maximum temperature yesterday: 68 °F (at 3:53 pm)
Minimum temperature yesterday: 41 °F (at 4:53 am)
Average temperature yesterday: 54 °F

High & Low Weather Summary for the Past Weeks

 TemperatureHumidityPressure
High99 °F (Oct 1, 2:53 pm)97% (Oct 9, 2:25 am)30.21 "Hg (Oct 9, 2:25 am)
Low41 °F (Oct 13, 4:53 am)29% (Oct 5, 3:53 pm)29.90 "Hg (Oct 5, 4:53 pm)
Average70 °F70%30.06 "Hg
* Reported Sep 29 4:53 pm — Oct 14 4:53 pm, 34°44'N, 87°40'W. Weather by CustomWeather, © 2019

Note: Actual official high and low records may vary slightly from our data, if they occured in-between our weather recording intervals... More about our weather records

Advertising

34°44'N, 87°40'W Weather History for the Previous 24 Hours

Scroll right to see more
 ConditionsComfort  
Time TempWeatherWind HumidityBarometerVisibility
4:53 pm
Mon, Oct 14
73 °FOvercast.No wind44%30.06 "Hg10 mi
3:53 pm74 °FPartly sunny.3 mph43%30.07 "Hg10 mi
2:53 pm72 °FPartly sunny.No wind43%30.08 "Hg10 mi
1:53 pm71 °FOvercast.3 mph44%30.09 "Hg10 mi
12:53 pm68 °FPassing clouds.3 mph53%30.11 "Hg10 mi
11:53 am65 °FSunny.5 mph63%30.14 "Hg10 mi
10:53 am58 °FPassing clouds.3 mph81%30.15 "Hg10 mi
10:22 am54 °FMore clouds than sun.No wind90%30.17 "Hg10 mi
10:07 am54 °FMostly cloudy.3 mph90%30.17 "Hg10 mi
9:30 am52 °FFog.3 mph97%30.16 "Hg5 mi
9:22 am52 °FFog.6 mph93%30.16 "Hg2 mi
8:53 am51 °FFog.No wind96%30.16 "Hg0 mi
7:53 am50 °FFog.6 mph93%30.14 "Hg0 mi
6:53 am49 °FFog.No wind93%30.13 "Hg0 mi
5:53 am48 °FFog.3 mph93%30.13 "Hg0 mi
5:44 am47 °FFog.3 mph97%30.13 "Hg1 mi
5:21 am47 °FFog.5 mph93%30.12 "Hg0 mi
4:53 am46 °FFog.No wind96%30.10 "Hg1 mi
4:18 am44 °FFog.No wind93%30.10 "Hg1 mi
3:59 am43 °FFog.3 mph93%30.10 "Hg2 mi
3:32 am44 °FPassing clouds.No wind89%30.10 "Hg10 mi
3:16 am44 °FFog.No wind93%30.10 "Hg1 mi
2:53 am45 °FFog.No wind93%30.10 "Hg1 mi
2:34 am45 °FFog.No wind93%30.10 "Hg2 mi
1:53 am48 °FClear.No wind89%30.09 "Hg10 mi
12:53 am47 °FClear.No wind90%30.09 "Hg10 mi
11:53 pm
Sun, Oct 13
49 °FClear.No wind86%30.08 "Hg10 mi
10:53 pm49 °FClear.No wind90%30.08 "Hg10 mi
9:53 pm51 °FClear.No wind80%30.07 "Hg10 mi
8:53 pm53 °FClear.No wind74%30.06 "Hg10 mi
7:53 pm57 °FClear.No wind64%30.06 "Hg10 mi
6:53 pm58 °FClear.6 mph60%30.04 "Hg10 mi
Weather by CustomWeather, © 2019

See weather overview